Home > Weather > Hoyerswerda > Past weeks

Flag for Germany Weather for the Past 2 Weeks in Hoyerswerda, Saxony, Germany

Now
43 °F

Clear.


Feels Like: 37 °F
Forecast: 44 / 61 °F
Wind: 9 mph from South

Location: Dresden-Klotzsche

Current Time: Apr 30, 2016 at 4:22:22 AM

Latest Report: Apr 30, 2016 at 3:50 AM


Visibility: 10 mi

Pressure: 30.07 "Hg

Humidity: 53%

Dew Point: 27 °F

Location of HoyerswerdaLocation

Historic Weather in Hoyerswerda — Graph

°F

Hoyerswerda Temperature Yesterday

Maximum temperature yesterday: 57 °F (at 1:50 PM)
Minimum temperature yesterday: 32 °F (at 3:50 AM)
Average temperature yesterday: 47 °F

High & Low Weather Summary for the Past Weeks

 TemperatureHumidityPressure
High59 °F (Apr 21, 2:50 PM)100% (Apr 15, 2:20 AM)30.39 "Hg (Apr 15, 2:20 AM)
Low32 °F (Apr 24, 6:20 AM)31% (Apr 29, 5:20 PM)29.47 "Hg (Apr 26, 7:50 AM)
Average44 °F70%29.91 "Hg
* Reported Apr 15 2:20 AM — Apr 30 2:50 AM, Hoyerswerda, Weather by CustomWeather, © 2016

Note: Actual official high and low records may vary slightly from our data, if they occured in-between our weather recording intervals... More about our weather records

Advertising

Hoyerswerda Weather History for the Previous 24 Hours

Scroll right to see more
 ConditionsComfort  
Time TempWeatherWind HumidityBarometerVisibility
2:50 AM
Sat, Apr 30
43 °FClear.9 mph57%30.07 "Hg10 mi
2:20 AM43 °FClear.9 mph57%30.07 "Hg10 mi
1:50 AM43 °FClear.9 mph57%30.07 "Hg10 mi
1:20 AM43 °FClear.8 mph57%30.07 "Hg10 mi
12:50 AM43 °FClear.7 mph57%30.09 "Hg10 mi
12:20 AM45 °FClear.7 mph53%30.09 "Hg10 mi
11:50 PM
Fri, Apr 29
45 °FClear.7 mph53%30.09 "Hg10 mi
11:20 PM46 °FClear.7 mph50%30.07 "Hg10 mi
10:50 PM45 °FClear.7 mph53%30.07 "Hg10 mi
10:20 PM46 °FClear.6 mph50%30.09 "Hg10 mi
9:50 PM48 °FClear.5 mph46%30.07 "Hg10 mi
9:20 PM50 °FSunny.6 mph43%30.07 "Hg10 mi
8:50 PM50 °FSunny.5 mph43%30.07 "Hg10 mi
8:20 PM52 °FSunny.6 mph41%30.07 "Hg10 mi
7:50 PM54 °FSunny.7 mph35%30.07 "Hg10 mi
7:20 PM55 °FSunny.8 mph33%30.07 "Hg10 mi
6:50 PM55 °FPassing clouds.8 mph36%30.07 "HgN/A
6:20 PM55 °FSunny.7 mph36%30.07 "Hg10 mi
5:50 PM57 °FSunny.7 mph31%30.07 "Hg10 mi
5:20 PM55 °FSunny.10 mph31%30.07 "Hg10 mi
4:50 PM55 °FSunny.10 mph33%30.07 "Hg10 mi
4:20 PM57 °FPassing clouds.14 mph33%30.07 "HgN/A
3:50 PM55 °FSunny.13 mph33%30.09 "Hg10 mi
3:20 PM55 °FSunny.5 mph36%30.09 "Hg10 mi
2:50 PM55 °FSunny.14 mph33%30.09 "Hg10 mi
2:20 PM55 °FPassing clouds.9 mph36%30.09 "HgN/A
1:50 PM57 °FSunny.12 mph36%30.09 "Hg10 mi
1:20 PM55 °FSunny.14 mph36%30.09 "Hg10 mi
12:50 PM54 °FPassing clouds.10 mph33%30.09 "HgN/A
12:20 PM55 °FSunny.10 mph33%30.09 "Hg10 mi
11:50 AM54 °FSunny.13 mph33%30.09 "Hg10 mi
11:20 AM52 °FPassing clouds.10 mph38%30.09 "HgN/A
10:50 AM52 °FPassing clouds.9 mph38%30.09 "HgN/A
10:20 AM50 °FPassing clouds.7 mph43%30.09 "HgN/A
9:50 AM50 °FPassing clouds.7 mph47%30.09 "HgN/A
9:20 AM48 °FPassing clouds.8 mph54%30.09 "HgN/A
8:50 AM45 °FSunny.8 mph61%30.09 "Hg10 mi
8:20 AM41 °FSunny.9 mph70%30.09 "Hg10 mi
7:50 AM39 °FSunny.9 mph75%30.09 "Hg10 mi
7:20 AM37 °FSunny.9 mph81%30.09 "Hg10 mi
6:50 AM36 °FSunny.8 mph87%30.09 "Hg10 mi
6:20 AM32 °FClear.6 mph93%30.07 "Hg10 mi
5:50 AM32 °FPassing clouds.3 mph87%30.07 "HgN/A
5:20 AM32 °FClear.7 mph87%30.07 "Hg10 mi
4:20 AM32 °FClear.6 mph93%30.07 "Hg10 mi
Weather by CustomWeather, © 2016

See weather overviewHow to use our weather pages